TimeEST,TemperatureF,Dew PointF,Humidity,Sea Level PressureIn,VisibilityMPH,Wind Direction,Wind SpeedMPH,Gust SpeedMPH,PrecipitationIn,Events,Conditions,WindDirDegrees,DateUTC
12:15 AM,46.8,45.0,93,29.85,4.0,Calm,Calm,-,N/A,Rain,Rain,0,2012-12-05 05:15:00
12:35 AM,46.8,45.0,93,29.85,4.0,Calm,Calm,-,N/A,Rain,Rain,0,2012-12-05 05:35:00
12:55 AM,46.8,45.1,94,29.85,7.0,Calm,Calm,-,N/A,Rain,Light Rain,0,2012-12-05 05:55:00
1:15 AM,46.8,45.0,93,29.84,10.0,Calm,Calm,-,N/A,,Drizzle,0,2012-12-05 06:15:00
1:35 AM,46.8,45.1,94,29.84,5.0,South,3.5,-,N/A,Rain,Rain,170,2012-12-05 06:35:00
1:55 AM,46.8,45.1,94,29.84,5.0,Calm,Calm,-,N/A,Rain,Light Rain,0,2012-12-05 06:55:00
2:15 AM,46.8,45.5,95,29.84,5.0,Calm,Calm,-,N/A,Rain,Light Rain,0,2012-12-05 07:15:00
2:35 AM,46.8,45.5,95,29.85,4.0,Calm,Calm,-,N/A,Rain,Rain,0,2012-12-05 07:35:00
3:15 AM,46.8,45.5,95,29.85,7.0,South,5.8,-,N/A,Rain,Rain,190,2012-12-05 08:15:00
3:35 AM,46.8,45.5,95,29.84,5.0,SSW,5.8,-,N/A,Rain,Light Rain,200,2012-12-05 08:35:00
3:55 AM,46.8,45.0,93,29.83,10.0,South,3.5,-,N/A,,Light Drizzle,190,2012-12-05 08:55:00
4:15 AM,45.9,43.2,90,29.84,10.0,SW,9.2,17.3,N/A,,Overcast,220,2012-12-05 09:15:00
4:35 AM,44.6,40.8,87,29.83,10.0,SSW,4.6,-,N/A,,Mostly Cloudy,200,2012-12-05 09:35:00
4:55 AM,44.2,40.3,86,29.84,10.0,SSW,5.8,-,N/A,,Overcast,200,2012-12-05 09:55:00
5:15 AM,44.2,39.9,85,29.86,10.0,WNW,8.1,-,N/A,,Overcast,290,2012-12-05 10:15:00
5:35 AM,41.2,37.0,85,29.86,7.0,West,3.5,-,N/A,Rain,Light Rain,260,2012-12-05 10:35:00
5:55 AM,40.5,36.9,87,29.86,10.0,SW,3.5,-,N/A,,Overcast,230,2012-12-05 10:55:00
6:15 AM,40.5,37.4,89,29.87,10.0,Calm,Calm,-,N/A,,Overcast,0,2012-12-05 11:15:00
6:35 AM,40.3,37.4,89,29.87,10.0,Calm,Calm,-,N/A,,Overcast,0,2012-12-05 11:35:00
6:55 AM,40.3,37.4,89,29.88,10.0,Calm,Calm,-,N/A,,Overcast,0,2012-12-05 11:55:00
7:15 AM,40.1,36.5,87,29.87,10.0,WSW,4.6,-,N/A,,Overcast,250,2012-12-05 12:15:00
7:35 AM,40.6,35.6,82,29.88,10.0,West,4.6,-,N/A,,Overcast,260,2012-12-05 12:35:00
7:55 AM,41.9,35.8,79,29.89,10.0,WNW,6.9,-,N/A,,Overcast,290,2012-12-05 12:55:00
8:15 AM,39.9,36.1,86,29.91,4.0,WNW,11.5,19.6,N/A,Rain,Rain,300,2012-12-05 13:15:00
9:55 AM,36.9,28.8,72,29.97,10.0,WNW,6.9,20.7,N/A,,Overcast,290,2012-12-05 14:55:00
10:15 AM,36.9,27.9,70,29.98,10.0,West,9.2,-,N/A,,Overcast,280,2012-12-05 15:15:00
10:35 AM,36.9,28.0,70,29.98,10.0,West,8.1,-,N/A,,Overcast,270,2012-12-05 15:35:00
10:55 AM,36.9,26.6,66,29.99,10.0,West,11.5,21.9,N/A,,Overcast,270,2012-12-05 15:55:00
11:15 AM,36.7,26.6,67,30.00,10.0,West,11.5,19.6,N/A,,Overcast,270,2012-12-05 16:15:00
11:35 AM,34.3,24.6,68,30.01,10.0,West,8.1,20.7,N/A,,Overcast,270,2012-12-05 16:35:00
11:55 AM,34.3,25.2,69,30.02,10.0,West,8.1,17.3,N/A,,Overcast,280,2012-12-05 16:55:00
12:15 PM,34.3,24.6,68,30.02,10.0,West,6.9,-,N/A,,Overcast,280,2012-12-05 17:15:00
12:35 PM,34.3,23.9,66,30.02,10.0,West,9.2,17.3,N/A,,Overcast,280,2012-12-05 17:35:00
12:55 PM,34.3,23.9,66,30.01,10.0,West,8.1,-,N/A,,Overcast,280,2012-12-05 17:55:00
1:15 PM,34.3,24.1,66,30.02,10.0,West,4.6,-,N/A,,Overcast,280,2012-12-05 18:15:00
1:35 PM,34.2,23.7,66,30.02,10.0,West,9.2,16.1,N/A,,Overcast,270,2012-12-05 18:35:00
1:55 PM,33.3,21.7,63,30.03,10.0,NW,10.4,24.2,N/A,,Overcast,310,2012-12-05 18:55:00
2:15 PM,32.0,22.5,68,30.04,10.0,WNW,8.1,-,N/A,,Overcast,300,2012-12-05 19:15:00
2:35 PM,32.0,20.3,62,30.05,10.0,WNW,5.8,19.6,N/A,,Overcast,300,2012-12-05 19:35:00
2:55 PM,32.0,19.9,61,30.06,10.0,WNW,6.9,16.1,N/A,,Overcast,300,2012-12-05 19:55:00
3:15 PM,32.0,20.3,62,30.07,10.0,West,4.6,16.1,N/A,,Overcast,280,2012-12-05 20:15:00
3:35 PM,32.0,20.5,63,30.08,10.0,WNW,6.9,-,N/A,,Overcast,290,2012-12-05 20:35:00
3:55 PM,32.0,18.9,58,30.09,10.0,West,5.8,-,N/A,,Overcast,280,2012-12-05 20:55:00
4:15 PM,32.0,20.8,63,30.11,10.0,WNW,6.9,16.1,N/A,,Overcast,290,2012-12-05 21:15:00
4:35 PM,29.7,21.7,72,30.11,5.0,WNW,5.8,-,N/A,Snow,Light Snow,300,2012-12-05 21:35:00
4:55 PM,29.7,21.2,71,30.12,10.0,West,6.9,-,N/A,,Overcast,280,2012-12-05 21:55:00
5:15 PM,29.7,18.0,62,30.13,10.0,WNW,6.9,19.6,N/A,,Overcast,300,2012-12-05 22:15:00
5:35 PM,29.7,17.1,59,30.15,10.0,WNW,5.8,-,N/A,,Overcast,300,2012-12-05 22:35:00
5:55 PM,29.7,16.5,58,30.15,10.0,WNW,5.8,-,N/A,,Overcast,290,2012-12-05 22:55:00
6:15 PM,29.7,15.8,56,30.15,10.0,WNW,5.8,-,N/A,,Overcast,290,2012-12-05 23:15:00
6:35 PM,29.7,15.6,56,30.16,10.0,West,9.2,-,N/A,,Overcast,280,2012-12-05 23:35:00
6:55 PM,29.7,17.1,59,30.16,10.0,West,5.8,-,N/A,,Overcast,280,2012-12-05 23:55:00
7:15 PM,29.7,17.1,59,30.17,10.0,WNW,6.9,16.1,N/A,,Overcast,290,2012-12-06 00:15:00
7:35 PM,29.7,17.2,60,30.18,10.0,WNW,10.4,20.7,N/A,,Overcast,300,2012-12-06 00:35:00
7:55 PM,29.7,18.1,62,30.19,10.0,WNW,9.2,17.3,N/A,,Overcast,300,2012-12-06 00:55:00
8:15 PM,29.5,18.3,63,30.20,10.0,WNW,9.2,18.4,N/A,,Overcast,300,2012-12-06 01:15:00
8:35 PM,29.3,18.3,64,30.20,10.0,WNW,6.9,16.1,N/A,,Overcast,290,2012-12-06 01:35:00
8:55 PM,28.8,17.6,63,30.20,10.0,NW,6.9,-,N/A,,Overcast,310,2012-12-06 01:55:00
9:15 PM,28.4,16.9,62,30.21,10.0,WNW,4.6,-,N/A,,Overcast,290,2012-12-06 02:15:00
9:35 PM,28.4,16.7,62,30.21,10.0,WNW,9.2,-,N/A,,Overcast,300,2012-12-06 02:35:00
9:55 PM,28.4,16.7,62,30.21,10.0,WNW,10.4,16.1,N/A,,Overcast,300,2012-12-06 02:55:00
10:15 PM,28.0,16.5,62,30.22,10.0,WNW,8.1,17.3,N/A,,Overcast,300,2012-12-06 03:15:00
10:35 PM,27.5,16.7,64,30.23,10.0,WNW,4.6,21.9,N/A,,Overcast,290,2012-12-06 03:35:00
10:55 PM,27.5,16.7,64,30.24,10.0,NW,3.5,17.3,N/A,,Overcast,310,2012-12-06 03:55:00
11:15 PM,27.5,16.7,64,30.24,10.0,WNW,5.8,17.3,N/A,,Overcast,300,2012-12-06 04:15:00
11:35 PM,27.3,16.3,63,30.24,10.0,WNW,8.1,-,N/A,,Overcast,300,2012-12-06 04:35:00
11:55 PM,27.1,14.9,60,30.25,10.0,NW,5.8,-,N/A,,Overcast,310,2012-12-06 04:55:00